Location: Sternwarte_Laufen
(47.9344°N, 12.9346°E)
Time: 02:24:57
(UTC+02:00)

ISS - Pass Details

Date: 15 July 2018
Orbit: 402 x 408 km, 51.6° (Epoch: 17 July)

Event Time Altitude Azimuth Distance (km) Brightness Sun altitude
Exits shadow 01:49:53 80° 326° (NW) 418 -3.8 -20.0°
Maximum altitude 01:49:55 80° 338° (NNW) 417 -3.8 -20.0°
Drops below altitude 10° 01:53:13 10° 66° (ENE) 1,472 -0.6 -20.0°
Sets 01:55:19 0° 68° (ENE) 2,335 0.5 -19.9°
